Abilene Dyess, TX

4:42 AM CDT on July 26, 2017 (GMT -0500)
Dyess Air Force Base

Weather History for KDYS - September, 2013

Change the Weather History Date:

Friday, September 13, 2013

  Actual Average Record
Temperature  
Mean Temperature 82 °F -  
Max Temperature 94 °F 88 °F 100 °F (2011)
Min Temperature 68 °F 67 °F 51 °F (2014)
Cooling Degree Days 16    
Growing Degree Days 32 (Base 50)    
Moisture  
Dew Point 59 °F    
Average Humidity 46    
Maximum Humidity 70    
Minimum Humidity 28    
Precipitation  
Precipitation 0.00 in - - ()
Sea Level Pressure  
Sea Level Pressure 29.84 in    
Wind  
Wind Speed 5 mph (ESE)    
Max Wind Speed 13 mph    
Max Gust Speed 18 mph    
Visibility 10 miles    
Events      
Averages and records for this station are not official NWS values.
T = Trace of Precipitation, MM = Missing Value Source: NWS Daily Summary

Daily Weather History Graph

Daily Weather History Graph

Search for Another Location

Airport or City:

Trip Planner

Search our weather history database for the weather conditions in past years. The results will help you decide how hot, cold, wet, or windy it might be!

Date:

Astronomy

Sep. 13, 2013 Rise Set
Actual Time 7:22 AM CDT 7:47 PM CDT
Civil Twilight 6:57 AM CDT 8:12 PM CDT
Nautical Twilight 6:28 AM CDT 8:41 PM CDT
Astronomical Twilight 5:59 AM CDT 9:10 PM CDT
Moon 3:24 PM CDT (9/13) 1:07 AM CDT (9/13)
Length of Visible Light 13h 14m
Length of Day
12h 25m
First Quarter, 61% of the Moon is Illuminated
Sep 13
First Quarter
Sep 19
Full
Sep 26
Last Quarter
Oct 4
New
Oct 11
First Quarter

Hourly Weather History & Observations

Time (CDT) Temp. Heat Index Dew Point Humidity Pressure Visibility Wind Dir Wind Speed Gust Speed Precip Events Conditions
12:58 AM 76.5 °F - 62.1 °F 61% 29.90 in 10.0 mi SSW 1.2 mph - N/A   Clear
1:58 AM 73.8 °F - 60.3 °F 63% 29.88 in 10.0 mi SSE 3.5 mph - N/A   Clear
2:58 AM 71.6 °F - 59.2 °F 65% 29.88 in 10.0 mi WSW 2.3 mph - N/A   Clear
3:58 AM 72.0 °F - 59.2 °F 64% 29.87 in 10.0 mi Calm Calm - N/A   Partly Cloudy
4:58 AM 68.9 °F - 55.6 °F 62% 29.87 in 10.0 mi South 1.2 mph - N/A   Clear
5:58 AM 70.0 °F - 59.0 °F 68% 29.88 in 10.0 mi ESE 3.5 mph - N/A   Clear
6:58 AM 68.4 °F - 58.3 °F 70% 29.88 in 10.0 mi NW 6.9 mph - N/A   Clear
7:58 AM 68.4 °F - 57.2 °F 67% 29.91 in 10.0 mi Calm Calm - N/A   Clear
8:58 AM 75.7 °F - 60.8 °F 60% 29.90 in 10.0 mi SE 1.2 mph - N/A   Clear
9:58 AM 81.7 °F 82.2 °F 60.4 °F 48% 29.90 in 10.0 mi South 2.3 mph - N/A   Scattered Clouds
10:58 AM 85.6 °F 85.2 °F 59.7 °F 41% 29.89 in 10.0 mi East 3.5 mph - N/A   Scattered Clouds
11:58 AM 89.2 °F 88.4 °F 59.2 °F 36% 29.88 in 10.0 mi Calm Calm - N/A   Partly Cloudy
12:58 PM 91.8 °F 90.6 °F 58.3 °F 32% 29.86 in 10.0 mi SE 10.4 mph - N/A   Scattered Clouds
1:58 PM 92.3 °F 91.0 °F 57.7 °F 31% 29.82 in 10.0 mi ESE 12.7 mph 18.4 mph N/A   Mostly Cloudy
2:58 PM 91.9 °F 90.8 °F 57.9 °F 32% 29.80 in 10.0 mi East 10.4 mph - N/A   Scattered Clouds
3:58 PM 92.5 °F 91.3 °F 57.6 °F 31% 29.77 in 10.0 mi East 10.4 mph - N/A   Partly Cloudy
4:52 PM 95.0 °F 93.7 °F 57.2 °F 28% 29.89 in 10.0 mi ESE 12.7 mph - N/A   Mostly Cloudy
4:58 PM 94.5 °F 93.0 °F 56.5 °F 28% 29.75 in 10.0 mi SE 8.1 mph 17.3 mph N/A   Scattered Clouds
5:02 PM 95.0 °F 93.7 °F 57.2 °F 28% 29.89 in 10.0 mi SE 12.7 mph - N/A   Mostly Cloudy
5:03 PM 95.0 °F 93.7 °F 57.2 °F 28% 29.89 in 10.0 mi SE 11.5 mph - N/A   Mostly Cloudy
5:58 PM 93.4 °F 91.8 °F 56.3 °F 29% 29.74 in 10.0 mi ESE 9.2 mph - N/A   Clear
6:58 PM 91.6 °F 90.1 °F 56.7 °F 31% 29.75 in 10.0 mi SE 11.5 mph - N/A   Clear
7:58 PM 88.3 °F 86.7 °F 55.6 °F 33% 29.76 in 10.0 mi SE 8.1 mph - N/A   Clear
8:58 PM 86.2 °F 84.9 °F 56.7 °F 36% 29.78 in 10.0 mi East 5.8 mph - N/A   Mostly Cloudy
9:58 PM 84.2 °F 85.0 °F 62.8 °F 48% 29.79 in 10.0 mi ENE 12.7 mph - N/A   Mostly Cloudy
10:58 PM 82.6 °F 84.1 °F 64.6 °F 54% 29.79 in 10.0 mi ENE 11.5 mph - N/A   Overcast
11:58 PM 80.8 °F 82.5 °F 64.6 °F 58% 29.81 in 10.0 mi ENE 10.4 mph - N/A   Mostly Cloudy